DW7554 Weather Reports


Display with metric or nautical units.
time (UTC)temp
F
wind
direction
speed
MPH
gust
MPH
rain 1hr
in
rain 24hr
in
rain mn
in
humidity
%
barometer
mb
20260504201535 55 264 4.0 13.0 0.00 0.00 0.00 62 1009.1
20260504200035 55 281 5.0 13.0 0.00 0.00 0.00 62 1009.0
20260504194541 57 248 5.0 13.0 0.00 0.00 0.00 58 1009.0
20260504193034 56 281 6.0 13.0 0.00 0.00 0.00 59 1009.1
20260504191538 57 268 5.0 13.0 0.00 0.00 0.00 58 1009.0
20260504190033 57 264 6.0 13.0 0.00 0.00 0.00 57 1009.1
20260504184531 57 248 3.0 13.0 0.00 0.00 0.00 56 1008.9
20260504183031 58 259 4.0 13.0 0.00 0.00 0.00 55 1008.9
20260504181530 58 262 4.0 13.0 0.00 0.00 0.00 54 1008.7
20260504180031 59 279 5.0 13.0 0.00 0.00 0.00 53 1008.7
20260504174529 59 298 4.0 13.0 0.00 0.00 0.00 52 1008.6
20260504173033 59 291 5.0 13.0 0.00 0.00 0.00 51 1008.5
20260504171533 60 274 6.0 13.0 0.00 0.00 0.00 50 1008.6
20260504081537 61 287 5.0 14.0 0.00 0.00 0.00 49 1010.3
20260504050001 43 77 1.0 0.0 0.00 0.00 0.00 73 1010.5
20260504044559 0 0.0 0.0 0.00 0.00 0.00 1010.5
20260504043108 0 0.0 0.0 0.00 0.00 0.00 1010.5
20260504041551 0 0.0 0.0 0.00 0.00 0.00 1010.6
20260504040106 0 0.0 0.0 0.00 0.00 0.00 1010.7
20260504034541 0 0.0 0.0 0.00 0.00 0.00 1011.0
20260504033040 41 72 2.0 20.0 0.00 0.00 0.00 76 1010.9
20260504031538 41 66 2.0 20.0 0.00 0.00 0.00 76 1011.1
20260504030037 41 77 2.0 20.0 0.00 0.00 0.00 76 1011.1
20260504024533 42 79 1.0 20.0 0.00 0.00 0.00 75 1011.2
20260504023033 43 77 0.0 20.0 0.00 0.00 0.00 73 1011.2
20260504021530 42 75 1.0 20.0 0.00 0.00 0.00 74 1011.3
20260504020032 43 72 2.0 20.0 0.00 0.00 0.00 73 1011.2
20260504014527 43 86 1.0 20.0 0.00 0.00 0.00 72 1011.0
20260504013027 43 77 1.0 20.0 0.00 0.00 0.00 73 1011.2
20260504011525 44 75 1.0 20.0 0.00 0.00 0.00 70 1011.1
20260504010024 44 77 1.0 20.0 0.00 0.00 0.00 69 1011.1
20260504004537 45 71 1.0 20.0 0.00 0.00 0.00 67 1011.0
20260504003021 44 60 2.0 20.0 0.00 0.00 0.00 69 1011.2
20260504001521 44 68 1.0 20.0 0.00 0.00 0.00 67 1011.3
20260504000021 44 64 2.0 20.0 0.00 0.00 0.00 67 1011.3
20260503234519 44 73 1.0 20.0 0.00 0.00 0.00 66 1011.3
20260503233021 44 59 3.0 20.0 0.00 0.00 0.00 66 1011.5
20260503231517 44 70 1.0 20.0 0.00 0.00 0.00 65 1011.6
20260503230016 44 94 1.0 20.0 0.00 0.00 0.00 67 1011.5
20260503224514 44 49 2.0 20.0 0.00 0.00 0.00 67 1011.5
20260503223011 44 98 0.0 20.0 0.00 0.00 0.00 66 1011.7
20260503221510 45 78 1.0 20.0 0.00 0.00 0.00 64 1011.7
20260503220006 45 83 1.0 20.0 0.00 0.00 0.00 64 1011.5
20260503214505 46 96 0.0 20.0 0.00 0.00 0.00 59 1011.4
20260503213004 45 50 1.0 20.0 0.00 0.00 0.00 63 1011.4
20260503211505 46 75 0.0 20.0 0.00 0.00 0.00 60 1011.3
20260503210003 46 44 2.0 20.0 0.00 0.00 0.00 62 1011.2
20260503204505 46 65 1.0 20.0 0.00 0.00 0.00 60 1011.2
20260503203001 48 94 1.0 20.0 0.00 0.00 0.00 59 1011.3